SCP
0 0 0 0 0 0 0 0 0 0 0 0 0 0 0 0 0 1 1 1 1 1 1 1 1 1 0 0 0 0 0 0 0 0 1 1 1 1 0 0 0 0 0
0 0 0 0 0 0 0 0 0 0 0 0 0 0 0 0 0 1 1 1 1 1 1 1 1 1 0 0 0 0 0 0 0 0 0 1 1 0 0 0 0 0 0
0 0 0 0 0 0 0 0 0 0 0 0 1 1 1 1 1 1 1 1 1 1 1 1 1 0 0 0 0 0 0 0 0 0 0 0 0 0 0 0 0 0 0
0 0 0 0 0 0 0 0 0 0 0 0 1 1 1 1 1 1 1 1 1 1 1 0 0 0 0 0 0 0 0 0 0 0 0 0 0 0 0 0 0 0 0
0 0 0 0 0 0 0 0 0 0 0 0 0 1 1 1 1 0 0 0 1 0 0 0 0 0 0 0 0 0 0 0 0 0 0 0 0 0 0 0 0 0 0
0 0 0 0 0 0 0 0 0 0 0 1 1 1 1 1 0 0 0 0 0 0 0 0 0 0 0 0 0 0 0 0 0 0 0 0 0 0 0 0 0 0 0
0 0 0 0 0 0 0 0 0 0 0 1 1 1 1 1 1 1 0 0 0 1 1 1 0 0 0 0 0 0 0 0 0 0 0 0 0 0 0 0 0 0 0
1 1 1 1 1 0 0 0 0 0 0 1 1 1 1 1 1 1 1 1 1 1 1 1 1 0 0 0 0 0 0 0 0 0 0 0 0 0 0 0 0 0 0
1 1 1 1 0 0 0 0 0 0 0 0 0 0 1 1 1 1 1 1 1 1 0 0 1 0 0 0 0 0 0 0 0 0 0 0 0 0 0 0 0 0 0
1 1 1 0 0 0 0 0 0 0 0 0 0 0 0 0 0 0 0 0 1 0 0 0 0 0 0 0 0 0 0 0 0 0 0 0 0 0 0 0 0 0 0
1 1 1 1 0 0 0 0 0 0 0 0 0 0 0 0 0 0 0 0 0 0 0 0 0 0 0 0 0 0 0 0 0 0 0 0 0 0 0 0 0 0 0
2 1 1 1 1 0 0 0 0 0 0 0 0 0 0 0 0 0 0 0 0 0 0 0 0 0 0 0 0 0 0 0 0 0 0 0 0 0 0 0 0 0 0
2 2 1 1 1 1 1 0 0 0 0 0 0 0 0 0 0 0 0 0 0 0 0 0 0 0 0 0 0 0 0 0 0 0 0 1 1 1 0 0 0 0 0
2 2 1 1 1 1 1 0 0 0 0 0 0 0 0 0 0 0 0 0 0 0 0 0 0 0 0 0 0 0 0 0 0 0 1 1 1 1 1 1 1 1 1
2 2 1 2 2 2 1 1 1 1 1 1 0 0 0 0 0 0 0 0 0 0 1 1 0 0 0 0 0 0 0 0 1 1 1 1 1 1 1 1 1 1 1
2 2 2 2 2 2 2 1 1 1 1 1 1 0 0 0 0 0 0 0 0 0 1 1 1 0 1 0 0 1 1 1 1 1 1 1 1 1 1 1 1 1 1
2 2 2 2 2 2 2 1 1 1 1 1 1 1 1 0 0 1 0 0 0 0 1 1 1 1 1 1 0 1 1 1 1 1 1 1 1 1 1 1 1 1 1
2 2 2 2 2 2 2 2 1 1 2 1 1 1 1 1 1 1 1 0 0 1 1 1 1 1 1 1 1 1 1 1 1 1 1 1 1 1 1 1 1 1 1
2 2 2 2 2 2 2 2 1 1 2 1 1 1 0 1 1 1 1 1 1 1 1 1 1 1 1 1 1 1 1 1 1 1 1 1 1 1 1 1 1 1 1
1 2 2 2 2 2 2 2 1 1 1 1 1 1 1 1 1 1 1 1 1 1 1 1 1 1 1 1 1 1 1 1 1 1 1 1 1 1 1 1 1 1 1
1 2 2 2 2 2 2 2 2 1 1 1 1 1 1 1 1 1 1 1 1 1 1 1 1 1 1 1 1 1 1 1 0 1 1 1 1 1 1 1 1 1 1
1 1 2 2 2 2 2 2 2 1 1 1 1 1 1 1 1 1 1 1 1 2 2 2 2 2 2 2 1 1 1 1 1 0 0 1 1 1 1 1 1 1 1
2 2 2 2 2 2 2 2 2 2 2 2 1 1 1 1 1 1 1 2 2 2 2 2 2 2 2 2 2 1 1 1 1 1 0 0 1 1 1 1 1 1 1
2 2 2 2 3 3 3 2 2 2 2 2 2 2 2 2 2 2 2 2 2 2 2 2 2 3 3 3 2 2 2 1 1 1 0 0 0 1 1 1 1 1 1
2 2 2 2 3 3 3 3 2 2 2 2 2 2 2 2 2 2 2 2 2 2 2 2 2 3 3 3 2 2 2 2 2 1 1 1 1 1 1 1 1 1 1
2 2 2 2 2 3 3 3 2 3 3 2 2 2 2 2 2 2 2 2 2 2 2 2 3 3 3 3 3 2 2 2 2 2 1 1 1 1 1 1 1 1 1
Wind_Speed
6 9 11 8 9 10 10 10 10 11 11 11 11 12 12 13 13 14 14 14 14 14 15 15 15 15 15 15 15 15 15 14 14 14 15 14 15 14 14 13 12 12 15
7 9 10 8 9 9 10 10 10 10 10 11 11 12 13 13 13 13 13 14 15 15 15 14 14 14 15 14 14 14 14 13 13 14 14 14 14 13 12 10 9 11 14
7 9 10 8 8 9 9 9 10 10 11 11 11 12 12 13 13 13 14 14 14 14 14 13 14 14 14 14 13 13 13 13 13 12 11 10 12 11 11 11 12 13 13
7 8 9 9 8 8 9 9 10 10 10 11 11 12 12 12 13 13 13 14 14 14 14 13 13 13 13 13 12 12 12 12 11 9 7 9 10 12 11 11 12 12 12
8 7 10 7 7 8 8 9 9 10 10 11 11 11 12 12 12 13 13 13 13 13 13 13 13 13 13 12 11 11 11 11 8 6 7 8 9 11 11 11 11 11 11
7 7 11 7 7 7 8 8 9 9 10 10 10 11 11 11 12 12 12 12 12 12 12 12 12 12 11 11 10 10 10 9 8 6 7 7 8 10 10 10 10 10 10
8 7 10 7 7 7 8 8 8 9 9 9 10 10 10 10 11 11 11 11 11 11 11 11 11 11 10 10 10 9 8 6 5 6 6 7 9 10 10 9 9 9 10
7 8 10 8 6 7 7 8 8 9 9 9 10 10 10 10 10 10 10 10 10 10 10 10 10 10 9 8 8 8 7 5 6 6 6 7 9 9 9 9 8 9 9
6 7 6 9 9 8 7 8 8 9 9 9 9 9 9 9 9 9 9 9 10 10 9 9 9 9 8 8 8 7 5 2 3 5 7 7 10 9 9 9 9 9 9
5 5 5 6 6 6 9 8 7 8 8 8 8 8 8 9 9 8 8 8 8 8 8 8 8 8 8 7 7 7 6 5 5 6 5 8 10 9 9 9 9 8 8
5 4 4 5 5 5 6 8 7 7 6 6 7 6 4 5 7 7 9 8 7 7 7 7 7 7 7 8 7 6 6 2 4 4 5 10 9 8 8 9 8 8 8
5 5 4 3 4 3 4 4 3 4 5 3 4 4 3 4 3 5 8 6 6 6 6 6 6 7 6 6 7 7 2 3 3 4 6 9 8 7 7 8 8 8 7
5 4 4 4 3 2 3 2 2 2 3 4 4 3 3 2 3 3 4 6 5 6 5 6 6 3 3 3 2 3 2 2 2 3 7 9 7 7 7 7 8 8 7
3 3 3 3 3 1 1 2 2 2 2 2 3 1 3 2 1 2 1 2 2 2 2 2 2 3 3 3 3 3 3 2 2 2 6 8 7 7 7 7 7 8 7
3 3 3 2 2 2 2 1 2 1 1 2 2 2 1 2 1 2 1 0 1 2 3 2 2 3 2 3 3 3 2 2 2 2 5 8 7 6 6 6 7 7 7
3 3 3 3 3 3 3 2 1 1 2 1 1 1 0 1 1 1 2 1 1 1 1 1 2 2 1 1 2 2 1 1 2 2 3 7 8 7 6 6 7 7 7
3 3 3 3 3 3 3 3 2 2 2 2 1 1 1 1 1 1 1 2 1 1 2 2 2 1 2 2 2 2 1 1 2 2 2 2 5 8 8 6 6 7 7
3 3 3 2 3 3 2 2 2 1 1 1 1 1 1 1 1 1 1 1 1 2 2 1 2 1 1 1 1 1 1 1 2 3 3 3 2 3 7 8 7 7 8
4 3 3 3 2 2 2 2 2 1 1 1 1 1 2 1 1 2 1 0 2 2 2 2 2 1 1 1 1 2 2 2 1 2 2 2 2 2 3 7 9 7 7
5 4 4 3 3 2 2 2 2 2 2 1 1 1 1 1 2 2 2 1 2 2 2 1 1 1 1 1 2 1 1 1 2 2 2 2 2 2 2 3 5 7 8
5 5 4 3 3 3 2 2 2 2 2 2 1 1 1 1 2 2 2 2 3 2 2 2 2 2 2 2 2 2 2 2 1 1 1 1 1 1 1 1 3 3 5
6 6 5 5 4 4 2 1 1 1 1 1 0 1 1 1 2 2 2 2 2 2 3 3 3 2 2 2 2 2 2 3 2 1 1 1 1 1 1 1 0 1 2
7 7 5 5 4 4 3 3 2 2 2 2 2 1 1 1 1 2 2 2 2 3 2 3 3 4 3 3 3 3 2 1 1 2 2 1 1 1 0 1 1 0 1
8 7 6 6 5 5 4 3 3 2 1 1 1 1 1 1 1 1 2 2 2 2 2 4 3 3 4 3 3 3 3 2 2 2 2 2 2 1 1 1 0 1 1
8 7 7 6 6 5 4 4 3 2 1 1 1 1 1 1 1 1 2 2 2 2 2 3 2 4 4 4 3 2 2 3 4 3 2 2 1 1 1 0 0 1 2
8 8 7 7 6 5 5 4 3 2 1 1 1 1 1 1 1 0 1 2 2 2 2 3 3 3 3 4 4 3 3 3 3 2 2 2 1 1 1 1 1 2 2
Wind_Direction
86 84 84 76 75 74 74 77 79 79 79 78 80 83 86 90 94 98 101 102 103 103 102 103 107 109 111 111 111 112 114 116 118 117 115 114 114 114 116 120 127 115 115
92 90 89 76 75 74 73 76 79 80 80 80 82 86 86 89 94 99 100 102 103 104 103 106 108 108 111 114 114 115 117 116 118 119 121 118 114 115 117 117 107 112 120
100 99 104 83 78 78 76 76 78 81 81 81 83 88 89 90 92 95 97 99 102 103 104 105 108 108 111 114 115 117 118 118 121 127 138 127 117 116 115 112 112 119 121
99 97 88 89 83 82 80 78 78 80 83 84 85 88 90 91 94 95 97 100 102 105 106 106 108 109 110 113 117 120 122 123 129 149 143 122 122 119 121 120 121 123 123
95 97 97 97 90 86 83 82 81 81 85 86 88 89 91 93 94 94 96 98 100 102 105 107 109 110 112 113 118 121 124 127 144 156 115 117 115 120 124 124 124 126 128
114 104 97 96 95 91 86 85 85 85 87 88 89 89 91 91 91 93 94 96 98 100 102 106 110 110 113 115 119 122 126 139 165 126 124 124 118 124 129 129 128 129 130
105 100 102 94 92 90 88 87 86 87 89 90 90 90 92 94 93 94 95 97 99 100 102 104 107 110 112 117 121 126 133 158 145 122 125 122 114 128 136 134 133 131 132
110 107 109 111 95 93 92 91 88 88 90 92 92 92 93 93 94 93 95 98 100 101 102 102 103 105 110 114 120 130 145 184 139 129 124 118 117 134 138 136 137 136 136
107 110 117 127 125 118 99 93 92 91 92 94 95 96 97 96 95 95 96 98 101 103 104 104 104 105 106 111 119 127 141 212 145 125 123 117 127 140 142 142 142 142 142
113 111 113 107 113 129 122 106 97 94 95 98 98 100 109 116 114 118 117 103 103 104 106 107 109 112 113 116 123 131 159 211 136 126 120 116 132 144 148 149 149 148 148
117 111 113 115 117 116 111 119 127 122 115 132 120 120 156 129 122 130 96 103 107 107 107 109 115 125 133 132 134 154 191 168 116 107 106 114 138 146 152 155 156 157 156
135 137 124 112 110 113 107 118 125 125 118 111 96 111 108 94 91 101 113 114 115 123 128 123 141 167 190 145 152 186 167 133 123 121 110 126 143 149 154 160 163 163 163
142 143 134 132 137 130 114 118 109 108 115 120 110 120 107 125 131 131 139 146 148 163 154 149 179 166 129 114 134 137 120 135 127 122 122 139 154 161 164 168 170 171 172
145 146 138 135 140 128 103 116 140 130 124 109 114 134 122 121 126 105 131 125 150 141 127 137 125 111 108 119 132 134 146 155 127 111 123 144 160 169 173 176 177 178 179
150 156 152 161 162 167 165 228 121 114 114 114 117 111 112 148 141 127 125 135 161 138 148 144 127 119 124 137 148 139 133 115 125 135 134 151 167 179 185 187 187 187 189
162 168 166 180 175 182 183 197 177 172 157 136 148 120 178 123 108 163 166 175 176 169 129 143 127 136 131 111 129 124 145 144 128 166 158 156 170 183 194 201 202 199 198
172 183 189 187 180 192 197 205 197 197 179 172 152 163 200 175 149 228 174 189 171 171 162 181 151 164 167 155 136 126 159 174 149 173 194 186 174 180 188 199 204 207 207
183 184 202 208 171 190 200 221 219 210 175 173 178 169 182 175 204 241 237 193 184 204 193 185 215 195 181 180 154 189 176 170 182 194 197 197 208 185 181 189 200 209 214
188 189 192 209 206 205 196 205 209 195 220 223 202 182 155 178 194 226 252 264 223 213 213 232 173 212 187 207 203 195 216 203 200 207 204 212 199 215 194 169 188 203 213
184 185 189 188 196 213 196 186 202 196 195 198 186 149 185 192 203 237 212 224 245 223 219 219 215 219 231 220 252 207 232 210 217 213 224 207 202 214 220 196 191 191 198
177 181 186 190 177 202 202 211 198 186 190 174 181 167 200 225 217 236 266 217 247 241 241 231 225 207 213 194 229 221 199 183 185 193 229 227 178 198 228 229 231 224 183
179 183 184 186 185 198 182 209 225 232 206 186 214 164 228 237 250 224 241 252 228 231 231 233 226 249 235 210 244 255 225 175 167 167 165 174 193 157 154 166 204 244 264
182 185 184 183 183 190 192 197 191 189 204 190 188 187 218 244 261 293 269 272 264 245 226 242 235 232 242 231 235 260 266 236 162 149 139 123 103 83 103 82 77 70 263
182 179 181 180 181 181 193 206 210 211 212 194 232 132 169 198 277 275 272 263 262 262 247 250 237 249 245 247 230 244 269 296 243 191 166 145 135 98 38 37 69 121 123
180 175 174 176 178 179 187 190 210 219 223 199 176 138 226 174 248 285 280 269 266 268 269 275 278 266 256 257 256 249 238 225 237 238 213 179 164 118 100 92 41 43 67
178 176 172 171 176 178 184 191 202 208 226 255 254 251 232 197 203 255 277 277 272 289 291 279 275 265 273 272 271 263 254 247 237 238 225 208 193 134 88 48 56 60 52